Fort Mitchell, AL

9:27 AM CST on February 19, 2017 (GMT -0600)
Lawson Army Air Field

Weather History for KLSF - February, 2013

Change the Weather History Date:

Thursday, February 21, 2013

  Actual Average Record
Temperature  
Mean Temperature 49 °F -  
Max Temperature 70 °F 62 °F 79 °F (2011)
Min Temperature 28 °F 37 °F 23 °F (2009)
Degree Days  
Heating Degree Days 16    
Moisture  
Dew Point 29 °F    
Average Humidity 49    
Maximum Humidity 93    
Minimum Humidity 18    
Precipitation  
Precipitation 0.00 in - - ()
Sea Level Pressure  
Sea Level Pressure 30.07 in    
Wind  
Wind Speed 4 mph (SE)    
Max Wind Speed 13 mph    
Max Gust Speed -    
Visibility 10 miles    
Events      
Averages and records for this station are not official NWS values.
T = Trace of Precipitation, MM = Missing Value Source: NWS Daily Summary

Daily Weather History Graph

Daily Weather History Graph

Search for Another Location

Airport or City:

Trip Planner

Search our weather history database for the weather conditions in past years. The results will help you decide how hot, cold, wet, or windy it might be!

Date:

Astronomy

Feb. 21, 2013 Rise Set
Actual Time 7:16 AM EST 6:31 PM EST
Civil Twilight 6:51 AM EST 6:56 PM EST
Nautical Twilight 6:22 AM EST 7:24 PM EST
Astronomical Twilight 5:54 AM EST 7:53 PM EST
Moon 2:54 PM EST (2/21) 4:11 AM EST (2/21)
Length of Visible Light 12h 04m
Length of Day
11h 15m
Waxing Gibbous, 83% of the Moon is Illuminated
Feb 21
Waxing Gibbous
Feb 25
Full
Mar 4
Last Quarter
Mar 11
New
Mar 19
First Quarter

Hourly Weather History & Observations

Time (EST) Temp. Dew Point Humidity Pressure Visibility Wind Dir Wind Speed Gust Speed Precip Events Conditions
12:58 AM 32.5 °F 27.0 °F 80% 30.14 in 10.0 mi NNW 2.3 mph - N/A   Clear
1:58 AM 31.8 °F 27.3 °F 83% 30.13 in 10.0 mi Calm Calm - N/A   Clear
2:58 AM 30.6 °F 27.0 °F 86% 30.12 in 10.0 mi South 2.3 mph - N/A   Clear
3:58 AM 30.6 °F 27.1 °F 87% 30.12 in 10.0 mi ESE 2.3 mph - N/A   Clear
4:58 AM 29.7 °F 26.4 °F 88% 30.12 in 10.0 mi SE 2.3 mph - N/A   Clear
5:58 AM 28.8 °F 26.4 °F 91% 30.15 in 10.0 mi ESE 2.3 mph - N/A   Clear
6:58 AM 29.5 °F 27.3 °F 92% 30.17 in 10.0 mi Calm Calm - N/A   Clear
7:58 AM 29.8 °F 28.0 °F 93% 30.17 in 10.0 mi Calm Calm - N/A   Clear
8:58 AM 36.7 °F 32.2 °F 84% 30.19 in 10.0 mi NW 1.2 mph - N/A   Clear
9:58 AM 46.0 °F 26.2 °F 46% 30.18 in 10.0 mi Variable 2.3 mph - N/A   Clear
10:58 AM 55.6 °F 24.8 °F 30% 30.17 in 10.0 mi Variable 1.2 mph - N/A   Clear
11:58 AM 61.5 °F 23.9 °F 24% 30.14 in 10.0 mi Variable 2.3 mph - N/A   Clear
12:58 PM 65.1 °F 25.3 °F 22% 30.10 in 10.0 mi SE 8.1 mph - N/A   Clear
1:58 PM 67.5 °F 25.0 °F 20% 30.06 in 10.0 mi SE 6.9 mph - N/A   Clear
2:58 PM 70.3 °F 24.8 °F 18% 30.01 in 10.0 mi ESE 8.1 mph - N/A   Clear
3:58 PM 70.3 °F 25.0 °F 18% 29.99 in 10.0 mi SSE 9.2 mph - N/A   Partly Cloudy
4:58 PM 68.5 °F 26.1 °F 20% 29.97 in 10.0 mi SSE 11.5 mph - N/A   Overcast
5:18 PM 68.0 °F 28.4 °F 23% 29.96 in 10.0 mi SE 12.7 mph - N/A   Mostly Cloudy
5:58 PM 66.4 °F 28.9 °F 25% 29.99 in 10.0 mi SE 8.1 mph - N/A   Overcast
6:58 PM 64.4 °F 30.4 °F 28% 30.01 in 10.0 mi SE 5.8 mph - N/A   Overcast
7:43 PM 62.6 °F 32.0 °F 32% 29.99 in 10.0 mi East 6.9 mph - N/A   Mostly Cloudy
7:58 PM 60.4 °F 31.8 °F 34% 30.00 in 10.0 mi SE 4.6 mph - N/A   Mostly Cloudy
8:03 PM 59.0 °F 32.0 °F 36% 30.00 in 10.0 mi SE 4.6 mph - N/A   Mostly Cloudy
8:23 PM 59.0 °F 32.0 °F 36% 29.99 in 10.0 mi SE 5.8 mph - N/A   Mostly Cloudy
8:58 PM 57.6 °F 35.2 °F 43% 30.01 in 10.0 mi SE 6.9 mph - N/A   Scattered Clouds
9:58 PM 59.4 °F 34.9 °F 40% 30.00 in 10.0 mi SE 9.2 mph - N/A   Overcast
10:58 PM 60.6 °F 37.0 °F 42% 29.98 in 10.0 mi SSE 9.2 mph - N/A   Overcast
11:58 PM 61.0 °F 39.6 °F 45% 29.98 in 10.0 mi South 6.9 mph - N/A   Mostly Cloudy